#timestamp,LO_Frequency,Hit,StdDev 
1651100415.6,286047001.2,N
1651100435.4,286046998.2,N
1651100455.3,286047001.2,N
1651100475.1,286047000.1,N
1651100495.9,286047001.1,N
1651100515.7,286047001.1,N
1651100535.5,286046998.8,N
1651100555.4,286046999.6,N
1651100575.2,286046998.4,N
1651100595.0,286046996.6,N
1651100595.9,286046996.6,N
1651100615.8,286047001.1,N
1651100635.6,286046998.8,N
1651100655.5,286046999.3,N
1651100675.3,286046998.3,N
1651100695.1,286047000.1,N
1651100715.9,286046998.5,N
1651100735.7,286046998.3,N
1651100755.5,286046998.3,N
1651100775.4,286047000.4,N
1651100795.2,286047001.0,N
1651100815.1,286047000.8,N
1651100816.0,286047000.8,N
1651100835.8,286047002.7,N
1651100855.6,286047000.7,N
1651100875.5,286047001.0,N
1651100895.3,286047001.2,N
1651100915.1,286046999.6,N
1651100935.9,286046998.4,N
1651100955.7,286046996.7,N
1651100975.6,286046999.2,N
1651100995.4,286046996.7,N
1651101015.2,286046999.6,N
1651101035.1,286046999.4,N
1651101036.0,286046999.4,N
1651101055.8,286046997.1,N
1651101075.7,286046998.1,N
1651101095.5,286046998.5,N
1651101115.3,286046998.9,N
1651101135.2,286046999.2,N
1651101155.9,286046998.8,N
1651101175.7,286046999.6,N
1651101195.6,286046999.0,N
1651101215.4,286046999.2,N
1651101235.3,286046997.0,N
1651101255.1,286046999.3,N
1651101256.0,286046999.3,N
1651101275.8,286046999.4,N
1651101295.7,286046999.3,N
1651101315.5,286047000.3,N
1651101335.4,286046998.5,N
1651101355.2,286046999.3,N
1651101375.0,286046999.1,N
1651101375.9,286046999.1,N
1651101395.8,286046998.7,N
1651101415.6,286047000.8,N
1651101435.4,286046999.9,N
1651101455.3,286046998.7,N
1651101475.1,286047002.8,N
1651101495.9,286047000.0,N
1651101515.7,286047000.4,N
1651101535.5,286047001.4,N
1651101555.4,286047001.8,N
1651101575.2,286047002.0,N
1651101595.0,286047002.7,N
1651101595.9,286047002.7,N
1651101615.8,286047002.7,N
1651101635.6,286047002.0,N
1651101655.5,286047002.4,N
1651101675.3,286047002.7,N
1651101695.1,286047000.1,N
1651101715.9,286047000.5,N
1651101735.7,286047000.6,N
1651101755.6,286047000.5,N
1651101775.4,286047000.6,N
1651101795.2,286047000.6,N
1651101815.1,286047000.6,N
1651101816.0,286047000.6,N
1651101835.8,286047001.1,N
1651101855.6,286046997.3,N
1651101875.5,286046996.8,N
1651101895.3,286046999.1,N
1651101915.2,286046999.3,N
1651101935.9,286046996.5,N
1651101955.7,286046997.0,N
1651101975.6,286046997.7,N
1651101995.4,286046997.5,N
1651102015.3,286046995.2,N
1651102035.1,286046997.7,N
1651102036.0,286046997.7,N
1651102055.8,286046999.3,N
1651102075.7,286046999.4,N
1651102095.5,286046997.2,N
1651102115.4,286046997.6,N
1651102135.2,286046997.0,N
1651102155.0,286046994.9,N
1651102155.9,286046994.9,N
1651102175.8,286046995.1,N
1651102195.6,286046996.2,N
1651102215.4,286046995.9,N
1651102235.3,286046996.1,N
1651102255.1,286046995.8,N
1651102275.9,286046995.6,N
1651102295.7,286046995.2,N
1651102315.5,286046994.9,N
1651102335.4,286046997.6,N
1651102355.2,286046997.7,N
1651102375.0,286046997.5,N
1651102376.0,286046997.5,N
1651102395.8,286046995.5,Y
1651102415.7,286046999.5,P
1651102435.5,286046997.0,N
1651102455.3,286046997.0,N
1651102475.2,286046999.3,N
1651102495.9,286046996.5,N
1651102515.7,286046997.5,N
1651102535.6,286046996.7,N
1651102555.4,286046997.2,N
1651102575.3,286046997.3,N
1651102595.1,286046997.3,N
1651102596.0,286046997.3,N
1651102615.8,286046997.3,Y
1651102635.7,286047001.2,P
1651102655.5,286046998.4,N
1651102675.4,286046999.4,N
1651102695.2,286046998.3,N
1651102715.0,286046999.2,N
1651102715.9,286046999.2,N
1651102735.8,286046996.5,Y
1651102755.6,286046998.9,P
1651102775.5,286046996.5,P
1651102795.3,286046999.5,N
1651102815.1,286046997.3,N
1651102835.9,286046997.7,N
1651102855.7,286046997.3,N
1651102875.5,286046999.1,N
1651102895.4,286046998.4,N
1651102915.2,286047000.8,N
1651102935.1,286047002.3,N
1651102936.0,286047002.3,N
1651102955.8,286046999.7,N
1651102975.6,286047000.9,N
1651102995.5,286047001.1,N
1651103015.3,286046998.2,N
1651103035.2,286047000.8,N
1651103055.9,286046998.1,N
1651103075.7,286046998.1,N
1651103095.6,286046998.7,N
1651103115.4,286046998.3,N
1651103135.3,286047001.0,N
1651103155.1,286047001.0,N
1651103156.0,286047001.0,N
1651103175.8,286046999.0,N
1651103195.7,286046998.6,N
1651103215.5,286047001.2,N
1651103235.3,286046999.4,N
1651103255.2,286046999.2,N
1651103275.0,286046997.0,N
1651103275.9,286046997.0,N
1651103295.8,286046999.6,N
1651103315.6,286046999.2,N
1651103335.4,286046997.2,N
1651103355.3,286046997.1,N
1651103375.1,286046997.1,N
1651103395.8,286046999.5,N
1651103415.7,286046997.1,N
1651103435.5,286046997.4,N
1651103455.4,286046995.4,N
1651103475.2,286046995.1,N
1651103495.0,286046997.5,N
1651103495.9,286046997.5,N
1651103515.8,286046997.7,N
1651103535.6,286046994.9,Y
1651103555.4,286046996.8,P
1651103575.3,286046997.0,P
1651103595.1,286046996.5,P
1651103615.9,286046997.4,Y
1651103635.7,286047002.8,P
1651103655.5,286046999.7,N
1651103675.4,286047000.6,N
1651103695.2,286046998.5,N
1651103715.1,286047000.7,N
1651103716.0,286047000.7,N
1651103735.8,286047001.1,N
1651103755.6,286046999.7,N
1651103775.5,286047000.4,N
1651103795.3,286047000.5,N
1651103815.2,286046998.5,N
1651103835.0,286046998.5,N
1651103835.9,286046998.5,N
1651103855.7,286046998.4,N
1651103875.6,286046998.4,N
1651103895.4,286046998.2,N
1651103915.3,286046999.0,N
1651103935.1,286046999.6,N
1651103955.9,286046998.1,N
1651103975.7,286047000.4,N
1651103995.5,286046998.1,N
